�������l�o���
Date,Time,MP-1(��Sv/h),MP-2(��Sv/h),MP-3(��Sv/h),MP-4(��Sv/h),MP-5(��Sv/h),MP-6(��Sv/h),MP-7(��Sv/h),MP-8(��Sv/h),����,����(m/s),���J
2019/04/25,00:00,0.782,1.143,0.791,1.461,1.065,0.446,0.783,0.737,��,10.8,�L
2019/04/25,00:10,0.782,1.143,0.794,1.462,1.064,0.445,0.783,0.739,��,10.5,�L
2019/04/25,00:20,0.786,1.142,0.793,1.463,1.066,0.445,0.784,0.738,��,9.3,�L
2019/04/25,00:30,0.783,1.144,0.791,1.460,1.064,0.445,0.783,0.738,��,10.6,�L
2019/04/25,00:40,0.783,1.143,0.792,1.462,1.064,0.447,0.783,0.741,��,10.2,�L
2019/04/25,00:50,0.785,1.143,0.791,1.465,1.066,0.446,0.783,0.740,��,9.9,�L
2019/04/25,01:00,0.784,1.141,0.793,1.461,1.066,0.446,0.783,0.739,��,9.0,��
2019/04/25,01:10,0.782,1.143,0.793,1.462,1.066,0.445,0.783,0.741,��,7.4,��
2019/04/25,01:20,0.781,1.139,0.790,1.462,1.066,0.446,0.782,0.740,��,7.9,��
2019/04/25,01:30,0.781,1.143,0.789,1.462,1.064,0.446,0.783,0.741,��,8.1,�L
2019/04/25,01:40,0.782,1.143,0.790,1.461,1.066,0.446,0.781,0.739,��,8.1,�L
2019/04/25,01:50,0.783,1.141,0.789,1.462,1.068,0.447,0.781,0.739,��,9.0,�L
2019/04/25,02:00,0.783,1.141,0.792,1.461,1.066,0.445,0.782,0.741,��,9.5,�L
2019/04/25,02:10,0.783,1.141,0.792,1.460,1.063,0.447,0.784,0.739,��,10.5,�L
2019/04/25,02:20,0.783,1.140,0.790,1.459,1.065,0.446,0.780,0.739,��,10.0,�L
2019/04/25,02:30,0.780,1.138,0.791,1.462,1.063,0.445,0.781,0.738,��,9.1,�L
2019/04/25,02:40,0.781,1.137,0.791,1.460,1.063,0.447,0.783,0.737,��,10.5,��
2019/04/25,02:50,0.779,1.139,0.791,1.459,1.062,0.447,0.782,0.736,��,9.0,�L
2019/04/25,03:00,0.782,1.138,0.790,1.459,1.061,0.445,0.779,0.738,��,10.9,�L
2019/04/25,03:10,0.783,1.139,0.791,1.460,1.060,0.446,0.781,0.738,��,10.3,�L
2019/04/25,03:20,0.779,1.139,0.789,1.459,1.063,0.446,0.781,0.737,��,11.0,�L
2019/04/25,03:30,0.780,1.141,0.790,1.459,1.064,0.445,0.782,0.739,��,10.3,�L
2019/04/25,03:40,0.780,1.141,0.789,1.462,1.060,0.445,0.782,0.738,��,9.5,�L
2019/04/25,03:50,0.780,1.138,0.789,1.460,1.061,0.444,0.783,0.737,��,9.2,�L
2019/04/25,04:00,0.781,1.139,0.789,1.459,1.061,0.444,0.780,0.738,��,9.3,��
2019/04/25,04:10,0.781,1.139,0.790,1.461,1.061,0.444,0.781,0.738,��,9.9,��
2019/04/25,04:20,0.780,1.137,0.791,1.459,1.062,0.446,0.781,0.740,��,10.0,��
2019/04/25,04:30,0.781,1.135,0.789,1.462,1.061,0.445,0.783,0.739,��,10.0,�L
2019/04/25,04:40,0.781,1.137,0.790,1.459,1.063,0.445,0.782,0.741,��,12.0,�L
2019/04/25,04:50,0.780,1.137,0.790,1.459,1.062,0.448,0.782,0.739,��,9.7,�L
2019/04/25,05:00,0.781,1.135,0.789,1.460,1.062,0.445,0.783,0.737,��,8.7,�L
2019/04/25,05:10,0.781,1.139,0.790,1.460,1.063,0.446,0.780,0.738,��,10.2,�L
2019/04/25,05:20,0.780,1.135,0.790,1.459,1.061,0.446,0.780,0.738,��,10.9,�L
2019/04/25,05:30,0.781,1.137,0.789,1.462,1.062,0.447,0.778,0.737,��,12.1,�L
2019/04/25,05:40,0.782,1.136,0.792,1.459,1.061,0.447,0.782,0.735,��,11.6,�L
2019/04/25,05:50,0.780,1.133,0.790,1.459,1.059,0.449,0.781,0.735,��,12.7,�L
2019/04/25,06:00,0.782,1.130,0.792,1.457,1.057,0.450,0.779,0.736,��,12.4,�L
2019/04/25,06:10,0.779,1.124,0.791,1.457,1.054,0.449,0.779,0.735,��,11.4,�L
2019/04/25,06:20,0.778,1.118,0.789,1.449,1.048,0.451,0.777,0.735,��,11.3,�L
2019/04/25,06:30,0.774,1.113,0.785,1.445,1.049,0.449,0.776,0.735,��,11.1,�L
2019/04/25,06:40,0.773,1.110,0.784,1.442,1.041,0.450,0.777,0.733,��,10.9,�L
2019/04/25,06:50,0.772,1.110,0.783,1.437,1.041,0.450,0.777,0.732,��,10.6,�L
2019/04/25,07:00,0.771,1.108,0.781,1.436,1.040,0.447,0.776,0.732,��,10.8,�L
2019/04/25,07:10,0.769,1.104,0.781,1.435,1.039,0.447,0.776,0.733,��,12.5,�L
2019/04/25,07:20,0.769,1.102,0.779,1.436,1.040,0.449,0.776,0.733,��,10.4,�L
2019/04/25,07:30,0.767,1.102,0.778,1.436,1.037,0.445,0.778,0.731,��,9.9,�L
2019/04/25,07:40,0.766,1.102,0.776,1.432,1.039,0.446,0.776,0.731,��,8.6,�L
2019/04/25,07:50,0.765,1.099,0.776,1.430,1.034,0.446,0.774,0.733,��,7.5,�L
2019/04/25,08:00,0.763,1.096,0.776,1.431,1.034,0.446,0.774,0.731,��,8.0,�L
2019/04/25,08:10,0.763,1.099,0.775,1.429,1.033,0.445,0.774,0.729,��,8.6,�L
2019/04/25,08:20,0.762,1.097,0.776,1.425,1.032,0.446,0.775,0.731,��,7.0,�L
2019/04/25,08:30,0.764,1.095,0.775,1.427,1.033,0.446,0.775,0.730,��,8.7,�L
2019/04/25,08:40,0.763,1.095,0.774,1.426,1.031,0.445,0.774,0.730,��,6.8,�L
2019/04/25,08:50,0.763,1.096,0.772,1.427,1.030,0.445,0.776,0.731,��,8.2,�L
2019/04/25,09:00,0.763,1.092,0.774,1.425,1.031,0.444,0.774,0.731,��,8.8,��
2019/04/25,09:10,0.763,1.092,0.770,1.421,1.031,0.443,0.774,0.729,��,7.1,��
2019/04/25,09:20,0.759,1.092,0.773,1.422,1.028,0.442,0.775,0.730,��,8.2,��
2019/04/25,09:30,0.757,1.092,0.769,1.419,1.029,0.444,0.774,0.730,��,6.6,�L
2019/04/25,09:40,0.759,1.091,0.770,1.426,1.029,0.441,0.774,0.729,��,5.8,�L
2019/04/25,09:50,0.758,1.092,0.770,1.422,1.029,0.442,0.776,0.729,��,6.4,��
2019/04/25,10:00,0.757,1.090,0.770,1.420,1.028,0.443,0.773,0.729,��,7.8,�L
2019/04/25,10:10,0.758,1.094,0.771,1.422,1.026,0.440,0.774,0.729,��,6.8,�L
2019/04/25,10:20,0.759,1.092,0.770,1.421,1.026,0.440,0.774,0.729,��,5.7,�L
2019/04/25,10:30,0.760,1.090,0.771,1.421,1.026,0.441,0.774,0.730,��,6.4,�L
2019/04/25,10:40,0.759,1.094,0.770,1.420,1.027,0.441,0.774,0.729,��,7.7,��
2019/04/25,10:50,0.757,1.090,0.771,1.421,1.028,0.442,0.774,0.729,��,7.0,�L
2019/04/25,11:00,0.760,1.091,0.770,1.423,1.028,0.440,0.775,0.728,��,6.9,�L
2019/04/25,11:10,0.757,1.094,0.769,1.420,1.028,0.440,0.776,0.730,��,7.1,��
2019/04/25,11:20,0.758,1.091,0.771,1.422,1.028,0.440,0.775,0.730,��,6.4,��
2019/04/25,11:30,0.758,1.094,0.772,1.423,1.031,0.440,0.776,0.730,��,7.6,��
2019/04/25,11:40,0.758,1.091,0.772,1.424,1.029,0.440,0.776,0.729,��,6.8,��
2019/04/25,11:50,0.757,1.092,0.772,1.423,1.030,0.440,0.774,0.730,��,7.2,��
2019/04/25,12:00,0.757,1.092,0.770,1.425,1.029,0.440,0.775,0.730,��,7.7,��
2019/04/25,12:10,0.756,1.094,0.770,1.422,1.029,0.440,0.776,0.729,��,6.8,��
2019/04/25,12:20,0.757,1.094,0.767,1.422,1.031,0.441,0.777,0.728,��,6.1,��
2019/04/25,12:30,0.756,1.095,0.768,1.422,1.029,0.440,0.775,0.730,��,5.7,��
2019/04/25,12:40,0.758,1.096,0.768,1.423,1.031,0.441,0.777,0.730,��쐼,3.8,��
2019/04/25,12:50,0.758,1.096,0.771,1.423,1.033,0.442,0.776,0.729,��,3.7,��
2019/04/25,13:00,0.757,1.094,0.770,1.423,1.030,0.442,0.776,0.729,��,4.7,��
2019/04/25,13:10,0.757,1.097,0.771,1.423,1.034,0.441,0.778,0.730,��,4.6,��
2019/04/25,13:20,0.757,1.096,0.772,1.422,1.034,0.441,0.777,0.730,��,3.9,��
2019/04/25,13:30,0.759,1.096,0.772,1.423,1.037,0.440,0.777,0.730,��,3.7,��
2019/04/25,13:40,0.760,1.098,0.771,1.423,1.039,0.442,0.778,0.730,��,3.3,��
2019/04/25,13:50,0.760,1.096,0.771,1.423,1.035,0.442,0.777,0.730,��,3.6,��
2019/04/25,14:00,0.760,1.097,0.769,1.422,1.036,0.442,0.775,0.729,��,3.0,��
2019/04/25,14:10,0.762,1.101,0.773,1.424,1.035,0.441,0.776,0.730,��,2.3,��
2019/04/25,14:20,0.761,1.098,0.772,1.424,1.036,0.441,0.778,0.730,��쓌,3.4,��
2019/04/25,14:30,0.761,1.098,0.771,1.425,1.038,0.443,0.778,0.728,��쓌,5.7,��
2019/04/25,14:40,0.761,1.100,0.773,1.425,1.037,0.442,0.777,0.730,��,5.8,��
2019/04/25,14:50,0.761,1.101,0.772,1.424,1.038,0.442,0.778,0.730,��,5.8,��
2019/04/25,15:00,0.762,1.101,0.773,1.426,1.040,0.441,0.778,0.730,��,4.4,��
2019/04/25,15:10,0.764,1.101,0.773,1.425,1.040,0.443,0.777,0.730,��,3.6,��
2019/04/25,15:20,0.763,1.103,0.774,1.423,1.038,0.443,0.777,0.730,��,2.5,��
2019/04/25,15:30,0.763,1.105,0.773,1.426,1.038,0.441,0.779,0.729,��쐼,1.7,��
2019/04/25,15:40,0.761,1.105,0.775,1.427,1.040,0.443,0.779,0.731,�k��,0.9,��
2019/04/25,15:50,0.762,1.104,0.773,1.426,1.039,0.443,0.780,0.731,�k�k��,3.2,��
2019/04/25,16:00,0.764,1.106,0.774,1.427,1.039,0.443,0.778,0.731,�k,3.2,��
2019/04/25,16:10,0.762,1.108,0.773,1.426,1.038,0.442,0.777,0.729,�k,3.0,��
2019/04/25,16:20,0.765,1.105,0.775,1.427,1.041,0.442,0.777,0.731,�k,2.9,��
2019/04/25,16:30,0.763,1.106,0.775,1.429,1.039,0.442,0.778,0.730,�k,4.4,��
2019/04/25,16:40,0.763,1.108,0.774,1.427,1.039,0.442,0.779,0.731,�k,5.4,��
2019/04/25,16:50,0.761,1.106,0.774,1.429,1.041,0.443,0.777,0.731,�k,8.7,��
2019/04/25,17:00,0.761,1.107,0.774,1.426,1.039,0.441,0.778,0.730,�k,8.9,��
2019/04/25,17:10,0.762,1.107,0.772,1.427,1.037,0.441,0.777,0.731,�k,9.5,��
2019/04/25,17:20,0.762,1.107,0.773,1.428,1.038,0.440,0.777,0.731,�k,8.2,��
2019/04/25,17:30,0.762,1.105,0.772,1.428,1.040,0.441,0.776,0.729,�k,8.7,��
2019/04/25,17:40,0.763,1.106,0.775,1.429,1.039,0.440,0.777,0.731,�k�k��,8.4,��
2019/04/25,17:50,0.764,1.106,0.775,1.429,1.039,0.441,0.778,0.732,�k�k��,8.8,��
2019/04/25,18:00,0.762,1.108,0.775,1.431,1.036,0.442,0.778,0.731,�k�k��,8.9,��
2019/04/25,18:10,0.763,1.109,0.775,1.430,1.040,0.441,0.780,0.730,�k,9.3,��
2019/04/25,18:20,0.765,1.108,0.775,1.433,1.039,0.442,0.778,0.730,�k,8.5,��
2019/04/25,18:30,0.762,1.106,0.774,1.432,1.039,0.440,0.776,0.732,�k,9.5,��
2019/04/25,18:40,0.762,1.107,0.775,1.432,1.041,0.437,0.775,0.731,�k,10.6,��
2019/04/25,18:50,0.759,1.106,0.772,1.432,1.039,0.437,0.775,0.731,�k�k��,9.4,��
2019/04/25,19:00,0.761,1.104,0.770,1.432,1.039,0.436,0.777,0.730,�k,9.4,��
2019/04/25,19:10,0.760,1.104,0.773,1.432,1.037,0.437,0.772,0.730,�k,8.3,��
2019/04/25,19:20,0.763,1.106,0.775,1.431,1.038,0.438,0.774,0.730,�k,6.4,��
2019/04/25,19:30,0.763,1.108,0.776,1.431,1.039,0.439,0.774,0.731,�k�k��,7.0,��
2019/04/25,19:40,0.761,1.106,0.774,1.432,1.037,0.438,0.774,0.731,�k�k��,7.3,��
2019/04/25,19:50,0.764,1.107,0.774,1.431,1.037,0.437,0.773,0.731,�k,6.4,��
2019/04/25,20:00,0.766,1.110,0.776,1.432,1.042,0.437,0.775,0.731,�k,6.7,��
2019/04/25,20:10,0.763,1.107,0.773,1.429,1.039,0.437,0.774,0.732,�k�k��,7.0,��
2019/04/25,20:20,0.764,1.110,0.777,1.432,1.041,0.438,0.773,0.732,�k�k��,6.1,��
2019/04/25,20:30,0.762,1.110,0.775,1.432,1.042,0.438,0.774,0.733,�k,6.2,��
2019/04/25,20:40,0.762,1.109,0.774,1.432,1.042,0.436,0.776,0.733,�k�k��,5.4,��
2019/04/25,20:50,0.763,1.111,0.773,1.431,1.041,0.437,0.774,0.733,�k�k��,5.7,��
2019/04/25,21:00,0.764,1.111,0.777,1.433,1.042,0.439,0.773,0.732,�k�k��,5.5,��
2019/04/25,21:10,0.763,1.110,0.773,1.434,1.043,0.439,0.773,0.736,�k�k��,4.9,��
2019/04/25,21:20,0.763,1.109,0.775,1.435,1.042,0.438,0.774,0.734,�k�k��,5.0,��
2019/04/25,21:30,0.761,1.109,0.775,1.433,1.043,0.438,0.774,0.733,�k�k��,5.4,��
2019/04/25,21:40,0.764,1.109,0.775,1.432,1.042,0.438,0.775,0.732,�k�k��,6.5,��
2019/04/25,21:50,0.763,1.110,0.775,1.434,1.039,0.437,0.775,0.734,�k,5.4,��
2019/04/25,22:00,0.764,1.111,0.774,1.433,1.044,0.437,0.774,0.733,�k,5.6,��
2019/04/25,22:10,0.763,1.109,0.775,1.433,1.043,0.438,0.774,0.734,�k�k��,5.1,��
2019/04/25,22:20,0.763,1.108,0.774,1.432,1.043,0.438,0.775,0.733,�k�k��,4.5,��
2019/04/25,22:30,0.761,1.111,0.774,1.433,1.044,0.437,0.774,0.732,�k�k��,4.5,��
2019/04/25,22:40,0.762,1.108,0.774,1.433,1.044,0.438,0.775,0.734,�k,4.5,��
2019/04/25,22:50,0.764,1.111,0.775,1.432,1.041,0.438,0.774,0.733,�k,4.3,��
2019/04/25,23:00,0.762,1.109,0.774,1.434,1.041,0.437,0.774,0.732,�k,5.9,��
2019/04/25,23:10,0.763,1.107,0.776,1.433,1.041,0.438,0.774,0.733,�k,6.1,��
2019/04/25,23:20,0.764,1.112,0.775,1.434,1.042,0.438,0.774,0.734,�k,6.8,��
2019/04/25,23:30,0.763,1.111,0.774,1.433,1.043,0.439,0.774,0.733,�k,6.5,��
2019/04/25,23:40,0.763,1.111,0.775,1.434,1.045,0.438,0.774,0.732,�k�k��,5.4,��
2019/04/25,23:50,0.762,1.111,0.774,1.433,1.042,0.438,0.775,0.734,�k�k��,4.7,��
